#timestamp,LO_Frequency,Hit 
1499104815.8,286047007.7,N
1499104835.7,286047008.5,N
1499104855.5,286047010.5,N
1499104875.3,286047011.9,N
1499104895.2,286047011.9,N
1499104915.9,286047010.1,N
1499104935.7,286047009.3,N
1499104955.6,286047009.9,N
1499104975.4,286047011.9,N
1499104995.2,286047013.0,N
1499105015.0,286047012.6,N
1499105016.0,286047012.6,N
1499105035.8,286047011.4,N
1499105055.6,286047014.0,N
1499105075.4,286047012.0,N
1499105095.3,286047012.1,N
1499105115.1,286047013.5,N
1499105135.8,286047015.3,N
1499105155.7,286047013.8,N
1499105175.5,286047012.5,N
1499105195.3,286047012.9,N
1499105215.2,286047013.4,N
1499105235.9,286047012.8,N
1499105255.7,286047014.5,N
1499105275.6,286047014.4,N
1499105295.4,286047016.6,N
1499105315.2,286047017.1,N
1499105335.1,286047014.7,N
1499105336.0,286047014.7,N
1499105355.8,286047012.9,N
1499105375.6,286047017.1,N
1499105395.4,286047014.3,N
1499105415.3,286047014.4,N
1499105435.1,286047014.7,N
1499105455.8,286047014.2,N
1499105475.7,286047017.2,N
1499105495.5,286047014.5,N
1499105515.3,286047012.5,N
1499105535.2,286047014.4,N
1499105555.9,286047014.5,N
1499105575.7,286047016.6,N
1499105595.6,286047017.6,N
1499105615.4,286047020.3,N
1499105635.2,286047021.6,N
1499105655.0,286047021.6,N
1499105656.0,286047021.6,N
1499105675.8,286047020.1,N
1499105695.6,286047017.6,N
1499105715.4,286047020.2,N
1499105735.3,286047017.6,N
1499105755.1,286047018.3,N
1499105775.8,286047017.5,N
1499105795.7,286047015.7,N
1499105815.5,286047019.8,N
1499105835.3,286047017.4,N
1499105855.2,286047015.7,N
1499105875.9,286047020.3,N
1499105895.7,286047019.5,N
1499105915.6,286047021.4,N
1499105935.4,286047020.0,N
1499105955.2,286047019.7,N
1499105975.0,286047019.0,N
1499105976.0,286047019.0,N
1499105995.8,286047019.3,N
1499106015.6,286047021.6,N
1499106035.4,286047021.6,N
1499106055.3,286047021.1,N
1499106075.1,286047020.4,N
1499106095.8,286047021.9,N
1499106115.7,286047019.4,N
1499106135.5,286047020.3,N
1499106155.3,286047021.6,N
1499106175.2,286047023.6,N
1499106195.9,286047021.1,N
1499106215.7,286047022.7,N
1499106235.6,286047019.7,N
1499106255.4,286047019.8,N
1499106275.2,286047019.0,N
1499106295.0,286047022.8,N
1499106296.0,286047022.8,N
1499106315.8,286047022.2,N
1499106335.6,286047020.9,N
1499106355.4,286047021.1,N
1499106375.3,286047019.4,N
1499106395.1,286047019.3,N
1499106415.8,286047022.0,N
1499106435.7,286047019.1,N
1499106455.5,286047019.8,N
1499106475.3,286047019.5,N
1499106495.2,286047019.5,N
1499106515.9,286047019.6,N
1499106535.7,286047023.0,N
1499106555.6,286047021.0,N
1499106575.4,286047020.8,N
1499106595.2,286047021.4,N
1499106615.1,286047022.5,N
1499106616.0,286047022.5,N
1499106635.8,286047024.3,N
1499106655.6,286047021.6,N
1499106675.4,286047021.1,N
1499106695.3,286047020.7,N
1499106715.1,286047025.1,N
1499106735.8,286047024.5,N
1499106755.7,286047022.3,N
1499106775.5,286047021.4,N
1499106795.3,286047019.3,N
1499106815.2,286047022.7,N
1499106835.9,286047023.5,N
1499106855.7,286047025.1,N
1499106875.6,286047023.9,N
1499106895.4,286047025.1,N
1499106915.2,286047023.9,N
1499106935.1,286047025.0,N
1499106936.0,286047025.0,N
1499106955.8,286047026.7,N
1499106975.6,286047024.5,N
1499106995.4,286047024.8,N
1499107015.3,286047023.8,N
1499107035.1,286047026.6,N
1499107055.8,286047026.7,N
1499107075.7,286047027.8,N
1499107095.5,286047025.7,N
1499107115.3,286047026.5,N
1499107135.2,286047025.6,N
1499107155.9,286047025.4,N
1499107175.7,286047025.7,N
1499107195.6,286047026.5,N
1499107215.4,286047026.0,N
1499107235.2,286047026.3,N
1499107255.1,286047029.6,N
1499107256.0,286047029.6,N
1499107275.8,286047029.9,N
1499107295.6,286047029.0,N
1499107315.5,286047029.0,N
1499107335.3,286047025.7,N
1499107355.1,286047027.9,N
1499107375.8,286047025.5,N
1499107395.7,286047027.7,N
1499107415.5,286047027.1,N
1499107435.3,286047027.7,N
1499107455.2,286047027.3,N
1499107475.9,286047029.7,N
1499107495.7,286047027.3,N
1499107515.6,286047028.5,N
1499107535.4,286047025.3,N
1499107555.2,286047027.7,N
1499107575.1,286047028.7,N
1499107576.0,286047028.7,N
1499107595.8,286047028.9,N
1499107615.6,286047031.2,N
1499107635.5,286047028.6,N
1499107655.3,286047030.7,N
1499107675.1,286047032.0,N
1499107695.8,286047032.9,N
1499107715.7,286047031.0,N
1499107735.5,286047031.2,N
1499107755.3,286047030.7,N
1499107775.2,286047031.9,N
1499107795.0,286047034.0,N
1499107795.9,286047034.0,N
1499107815.7,286047034.4,N
1499107835.6,286047034.5,N
1499107855.4,286047033.3,N
1499107875.2,286047033.6,N
1499107895.1,286047034.0,N
1499107896.0,286047034.0,N
1499107915.8,286047032.9,N
1499107935.6,286047030.4,N
1499107955.5,286047032.3,N
1499107975.3,286047030.3,N
1499107995.1,286047031.7,N
1499108015.9,286047034.8,N
1499108035.7,286047034.8,N
1499108055.5,286047034.3,N
1499108075.4,286047034.5,N
1499108095.2,286047031.9,N
1499108115.0,286047034.1,N
1499108115.9,286047034.1,N
1499108135.7,286047033.7,N
1499108155.6,286047033.7,N
1499108175.4,286047033.4,N
1499108195.2,286047036.4,N
1499108215.1,286047035.3,N
1499108216.0,286047035.3,N
1499108235.8,286047035.1,N
1499108255.6,286047039.4,N
1499108275.5,286047036.5,N
1499108295.3,286047041.1,N
1499108315.1,286047038.3,N
1499108335.9,286047039.0,N
1499108355.7,286047038.3,N
1499108375.5,286047040.5,N
1499108395.4,286047038.8,N
